Theta_e
320 319 321 322 322 324 325 324 329 338 341 338 339 339 335 332 334 337 338 339 339 340 341 341 339 338 335 333 334 335 336 336 336 336 337 340 341 341 342 342 342 342 341 341 340 339 339 339 339 338 338 338 337 336 335 333 332 334 335 334 335 335 333 333 333 333 335 335 336 336 337 337 336 335 335 334 333 331 330 329 329 328 328 327 325
320 320 320 321 322 323 324 324 323 330 340 340 339 340 337 334 334 336 337 338 339 340 341 340 339 337 334 330 330 333 334 336 336 336 335 337 339 340 342 342 341 341 341 341 340 340 339 340 339 339 339 338 337 337 336 335 333 334 335 334 335 335 334 334 333 333 335 336 337 337 337 337 336 335 335 334 333 332 331 329 329 329 328 327 326
319 320 320 320 322 322 323 325 323 323 331 337 340 341 339 338 337 337 337 337 339 340 340 340 339 337 335 330 329 333 335 335 336 336 336 336 337 339 341 342 341 341 341 341 341 340 339 340 340 339 339 339 338 337 336 336 334 334 335 334 335 335 334 334 333 333 335 336 337 338 338 338 337 335 335 334 333 333 332 330 330 329 328 328 327
319 320 321 321 322 323 323 324 324 322 324 330 339 343 342 341 341 340 339 338 339 340 340 340 339 338 336 335 334 334 336 336 336 336 335 335 335 337 339 340 341 341 340 341 342 341 340 340 340 340 339 340 339 339 337 336 334 334 335 335 335 335 335 335 334 333 334 335 336 337 338 337 338 337 335 335 334 333 333 332 330 329 329 329 328
319 319 321 322 322 323 323 323 324 324 323 324 331 338 342 343 342 342 341 340 341 341 340 341 341 340 338 337 337 336 336 336 336 336 335 335 334 335 336 338 340 341 340 340 341 341 340 339 340 340 340 340 340 340 339 337 335 335 336 335 335 335 335 334 334 334 333 334 335 335 337 338 337 336 336 336 335 334 334 333 331 330 329 329 328
319 319 319 321 322 322 323 323 323 324 326 324 323 328 336 341 342 342 342 342 341 341 341 341 341 341 339 338 338 337 336 336 336 335 335 335 334 334 336 336 337 339 340 339 339 340 339 339 340 340 340 340 340 340 340 339 337 336 335 335 334 334 334 333 334 335 333 333 333 332 334 336 336 335 337 338 336 335 334 334 332 331 330 329 329
318 319 319 320 321 322 323 322 322 324 325 325 324 325 329 334 338 340 341 342 342 341 341 341 340 340 339 339 338 338 337 336 336 336 335 334 334 335 337 337 337 338 338 338 338 338 339 338 339 340 340 339 340 340 340 340 339 337 335 334 334 333 333 333 334 335 333 333 333 331 331 332 334 336 338 339 338 336 335 334 333 332 332 331 329
318 319 319 320 321 321 322 322 322 323 324 324 325 325 326 328 333 337 338 339 341 340 339 340 340 340 339 338 339 339 338 338 337 337 336 335 335 336 337 337 337 337 338 338 337 337 337 337 338 340 340 339 339 339 339 339 339 338 337 335 334 333 333 333 334 335 334 333 333 333 333 333 334 336 337 337 338 337 335 335 334 333 332 332 331
317 318 319 320 321 320 320 321 321 322 323 324 324 325 325 325 329 334 336 338 340 339 338 338 339 339 338 337 338 339 338 338 337 337 337 336 336 337 337 337 337 338 338 338 337 336 336 337 337 339 339 339 339 338 338 338 339 339 338 336 335 334 333 333 333 334 334 333 333 333 334 335 334 335 336 335 336 338 338 336 335 334 333 333 332
316 317 318 319 320 320 319 320 320 321 322 323 324 324 325 324 325 329 333 337 338 336 335 337 338 337 336 335 335 336 338 338 337 337 337 337 337 337 338 338 338 338 338 338 337 336 337 337 337 338 338 339 338 337 337 338 339 339 338 337 336 335 333 332 333 334 334 332 332 333 334 336 335 335 335 334 335 337 338 338 335 335 335 334 333
315 316 317 317 318 319 319 319 319 320 321 321 323 323 324 324 324 325 328 335 336 333 333 334 335 337 336 334 332 333 337 338 337 337 337 337 337 337 337 338 338 337 337 337 338 337 337 337 337 337 337 338 338 338 337 338 339 339 338 338 336 335 335 333 332 333 334 333 332 332 333 335 335 335 335 333 334 336 339 338 335 335 335 334 334
315 315 316 317 318 318 319 319 319 319 320 320 321 322 323 324 324 324 324 330 335 335 334 335 334 335 335 334 332 333 336 338 337 337 336 337 337 336 336 337 337 337 336 337 338 338 338 337 337 337 338 338 338 338 337 337 339 339 339 339 338 336 336 335 333 333 334 333 331 331 332 334 334 334 334 332 333 335 337 338 336 335 335 335 334
315 316 316 317 318 318 318 318 319 319 319 320 320 320 322 323 324 325 323 327 334 334 335 336 335 334 335 334 333 332 335 337 337 337 336 336 336 335 335 336 336 336 336 337 339 338 338 338 338 337 337 338 338 338 338 338 338 339 339 339 338 337 337 337 335 333 334 334 333 331 331 333 333 333 333 331 332 335 335 337 337 336 336 336 336
316 316 316 317 318 318 318 317 318 319 319 319 319 320 321 322 323 324 324 325 330 333 333 334 335 336 335 334 333 332 332 332 333 336 337 336 336 336 336 336 336 337 337 338 339 339 338 338 338 338 337 338 338 338 338 338 339 339 339 339 338 338 337 337 337 335 335 335 334 333 331 332 333 333 332 330 332 336 335 336 337 337 337 336 336
316 316 316 316 317 317 318 318 317 318 319 318 319 319 319 320 321 323 324 323 325 330 332 333 335 336 336 334 332 332 333 331 330 334 336 336 337 338 338 338 337 338 339 340 341 340 339 338 339 338 337 338 339 339 339 339 339 339 339 338 338 338 337 337 337 337 336 335 335 336 333 332 333 332 332 332 332 335 335 335 336 338 339 337 335
315 315 315 316 316 317 317 318 317 317 318 318 319 319 318 319 320 321 323 323 324 325 328 331 333 335 336 335 333 334 335 333 330 332 335 336 335 336 339 340 339 341 341 341 341 341 340 339 339 339 338 338 339 339 339 338 338 338 338 338 337 338 338 337 337 337 337 335 335 336 336 335 334 333 333 333 333 334 336 335 334 336 339 338 337
315 315 315 315 315 316 316 317 317 317 318 318 318 318 317 318 318 319 321 322 323 324 325 327 330 332 335 337 337 337 336 334 334 335 336 337 335 333 337 340 341 342 341 339 339 340 341 340 338 338 338 338 339 339 339 338 338 338 337 338 337 338 338 337 337 337 337 337 336 335 336 336 335 334 334 334 333 335 336 335 335 335 336 338 339
315 314 315 315 314 315 315 315 316 316 317 317 317 318 317 317 317 318 320 321 321 323 323 325 327 330 332 335 337 338 337 336 336 336 336 338 337 334 337 341 341 341 339 338 337 338 340 339 337 337 338 338 337 338 338 338 338 337 337 337 337 338 338 337 337 337 337 337 337 336 336 336 336 335 335 335 335 337 337 335 336 336 336 337 337
314 314 313 314 313 313 314 314 314 315 316 316 317 317 317 316 316 318 320 319 319 321 323 323 325 329 331 333 336 338 338 338 338 336 337 338 338 337 338 340 340 340 339 337 336 336 338 338 337 337 338 338 337 336 336 337 337 336 336 337 337 338 338 337 337 337 337 338 337 337 337 337 337 337 337 337 336 337 337 336 336 336 337 337 335
314 313 312 312 312 312 313 313 314 314 315 316 316 317 317 316 316 318 319 318 318 319 320 322 323 326 329 333 336 338 339 339 339 338 338 338 338 338 338 339 340 339 339 339 338 337 337 337 337 338 339 339 338 337 336 336 336 336 336 336 336 337 337 337 337 337 337 337 337 338 338 338 338 337 337 337 337 336 336 337 337 336 337 337 336
313 312 311 311 311 311 311 312 313 314 315 315 316 316 317 317 317 317 318 318 318 319 318 319 321 323 326 329 333 337 339 339 339 338 338 338 337 338 337 338 340 340 339 339 339 338 338 337 338 339 339 339 338 337 336 336 336 336 336 336 336 336 337 337 337 337 337 337 336 338 338 338 338 338 337 337 337 337 337 337 337 337 337 337 337
313 312 311 311 311 310 310 311 312 313 313 314 315 316 317 317 317 317 318 318 318 318 318 319 320 320 321 324 327 332 337 339 339 339 339 338 337 337 337 337 339 340 339 338 338 339 338 337 338 338 338 339 338 337 337 337 336 336 336 336 335 336 337 337 337 337 337 337 337 337 338 338 338 338 337 337 338 338 338 338 337 337 337 337 337
312 311 311 311 310 310 311 312 312 313 313 314 315 316 317 317 318 318 317 317 317 317 318 319 320 319 319 321 323 326 332 336 337 339 339 339 338 338 337 338 339 340 339 337 335 337 337 338 339 338 337 338 338 336 336 337 337 336 336 336 336 336 337 337 337 337 337 337 337 338 338 338 338 338 338 337 337 338 338 338 337 337 336 337 337
311 310 311 310 309 310 312 312 312 313 313 314 315 316 317 317 317 318 317 317 318 318 318 319 321 322 321 320 321 323 326 330 333 335 336 338 338 337 336 337 338 340 340 338 336 336 337 338 338 338 337 337 337 336 336 338 337 336 336 336 336 336 337 337 337 337 337 337 337 337 338 338 338 338 337 337 337 338 338 338 337 336 335 336 338
311 310 310 309 309 310 311 311 312 313 313 314 315 316 317 317 317 318 318 318 319 319 319 320 321 322 322 321 320 321 323 326 329 332 334 336 337 336 336 336 337 339 340 339 338 337 337 337 337 337 338 338 338 337 337 338 338 337 337 337 336 336 337 337 337 337 337 336 337 337 337 337 338 337 337 337 337 337 337 337 336 335 335 336 337
311 310 310 309 309 310 310 311 312 313 313 314 315 316 318 318 317 317 317 318 319 319 320 321 322 322 323 322 319 319 321 323 325 328 332 336 336 335 334 334 335 336 338 339 338 337 337 337 337 337 338 338 338 338 339 339 338 338 338 338 337 337 337 337 337 337 337 337 337 337 338 337 337 337 336 336 337 336 337 337 336 335 335 336 336
311 310 309 309 309 310 311 311 311 312 313 313 315 316 318 318 317 317 317 318 318 319 320 320 321 322 322 322 321 320 321 322 323 323 326 332 334 331 331 332 332 332 335 336 337 336 337 338 337 337 337 339 339 340 340 340 339 338 338 338 339 338 337 337 337 338 337 337 337 338 338 338 337 336 336 336 337 337 337 337 336 336 336 336 336
311 310 310 310 310 310 311 311 311 311 312 313 314 315 317 318 318 318 318 318 318 319 319 319 321 322 322 322 322 321 321 320 321 322 323 327 331 332 333 334 334 332 331 332 334 336 336 336 335 335 336 339 341 341 341 340 339 339 338 339 339 339 339 338 338 338 338 337 338 338 338 338 337 336 335 335 336 337 337 338 337 336 337 336 337
310 310 310 310 310 311 311 311 310 311 311 312 313 314 315 317 318 319 319 319 319 320 320 320 322 323 323 323 322 322 322 320 320 320 322 325 328 331 333 335 336 335 331 328 331 334 336 336 336 336 337 340 341 340 340 340 339 338 338 339 339 339 339 339 339 339 338 338 338 338 338 338 337 336 335 335 336 336 337 338 337 337 337 338 338
310 310 310 310 310 311 311 310 310 310 310 311 312 313 314 315 316 317 319 320 320 321 322 323 323 323 323 324 324 324 323 321 319 319 321 325 328 331 333 333 335 338 337 334 334 334 335 335 336 338 339 340 339 338 339 339 337 337 338 339 339 339 339 340 340 339 339 338 338 338 338 337 337 336 334 335 336 336 337 337 338 337 337 338 339
310 310 310 310 310 311 310 310 310 309 309 310 312 312 313 313 314 315 317 319 319 320 321 323 323 323 323 323 325 326 326 325 323 322 323 325 327 329 331 332 333 336 337 337 338 337 336 336 337 338 339 339 337 337 339 338 335 337 339 339 339 339 339 339 340 340 339 339 338 338 338 337 336 335 333 334 335 336 336 337 337 338 338 338 339
310 310 310 310 310 310 310 310 309 309 309 309 311 311 312 312 313 314 316 317 318 319 320 322 322 322 322 323 324 326 327 327 328 327 327 329 328 326 327 329 330 331 332 333 335 337 338 338 338 339 339 338 338 337 338 338 337 338 339 338 338 339 340 340 340 340 340 339 339 338 338 338 337 335 333 334 336 336 337 337 337 338 339 339 339
309 310 309 310 310 310 310 310 309 309 308 308 309 311 311 312 313 314 315 316 317 318 319 320 321 321 321 322 323 324 325 326 328 329 330 331 330 328 326 327 328 329 329 329 331 334 337 337 338 339 339 338 337 337 336 337 338 339 339 338 337 338 339 340 340 340 340 339 339 338 338 338 337 335 334 334 335 336 337 337 338 338 339 340 340
310 309 309 310 310 309 309 309 309 308 308 308 308 309 311 311 312 312 313 314 315 316 317 318 318 318 319 320 321 322 323 325 326 328 329 330 332 331 329 328 328 328 328 327 328 331 334 336 336 337 337 337 337 336 335 335 337 338 338 338 338 338 339 340 339 339 339 339 339 338 338 338 337 336 334 334 334 335 337 337 338 339 339 340 340
309 310 310 310 310 309 308 308 309 308 308 308 307 308 310 311 311 311 312 313 313 314 315 315 315 316 317 318 319 320 321 323 325 326 328 329 330 331 331 330 329 328 328 328 327 328 330 331 332 334 336 335 335 335 334 333 333 333 334 337 338 337 338 339 339 339 339 339 339 338 337 337 337 336 334 334 334 335 337 337 338 339 339 339 339
309 310 310 310 309 309 308 308 308 308 307 307 307 308 309 310 310 310 310 311 312 312 312 313 313 314 315 317 318 319 320 322 323 325 326 327 329 330 330 331 330 329 328 328 327 327 327 328 329 332 333 334 334 334 334 333 331 329 331 335 338 337 337 339 339 339 339 339 339 339 337 337 337 336 335 334 333 335 337 337 337 337 338 338 338
309 309 309 309 308 308 308 307 308 308 307 307 307 307 308 309 309 309 309 309 310 310 310 311 311 312 314 316 317 318 320 321 322 323 324 325 327 329 329 330 330 330 329 328 328 327 327 327 327 328 329 330 331 332 333 333 332 330 332 335 336 336 337 338 338 339 339 339 339 339 338 337 336 336 335 334 333 335 337 338 338 337 337 337 338
309 309 309 308 308 308 307 307 307 308 307 307 307 307 308 308 308 308 308 308 308 309 309 310 310 311 313 315 317 318 319 320 321 322 323 324 325 327 328 329 330 330 330 329 329 328 328 327 327 326 327 327 327 329 331 332 333 333 334 335 336 336 336 337 338 339 339 339 339 339 338 337 337 336 335 335 335 335 336 338 338 338 338 338 337
308 308 308 308 308 307 307 307 307 307 307 306 306 307 307 307 307 307 307 308 308 308 309 309 310 311 312 314 316 318 319 319 320 321 322 323 324 325 326 327 327 329 330 330 330 329 329 329 328 327 327 327 326 327 327 328 330 332 334 334 334 335 336 337 338 338 339 339 339 339 338 337 337 336 336 335 335 335 336 337 338 338 338 338 338
309 308 308 308 307 307 306 307 307 307 307 306 305 306 306 306 306 306 307 307 307 307 308 308 309 310 311 313 315 317 317 318 320 321 321 322 322 323 324 325 326 328 329 329 329 329 329 330 330 329 329 328 327 326 325 326 328 330 332 331 330 332 335 337 337 338 339 339 340 339 338 338 337 337 336 336 336 336 336 337 338 338 338 338 338
308 308 308 307 307 306 306 307 307 306 307 306 305 305 305 305 306 306 306 306 306 306 307 308 309 310 310 312 314 315 316 317 318 319 319 320 321 321 322 324 326 327 328 328 329 329 330 331 330 331 331 330 329 327 325 327 330 332 333 331 329 330 333 335 336 338 339 340 340 340 340 339 338 337 337 337 337 337 337 337 338 338 338 338 338
308 308 307 307 306 306 306 306 306 306 306 305 305 305 305 305 305 305 305 305 305 306 306 307 308 308 309 311 312 313 313 315 316 316 317 319 320 320 322 323 324 325 327 329 329 329 329 329 330 330 331 331 330 329 328 328 330 332 333 332 330 330 332 333 335 337 339 340 339 340 340 339 339 338 337 337 337 338 338 338 338 338 338 338 339
307 308 307 307 306 306 306 306 306 305 305 305 305 305 305 305 305 305 304 305 305 305 306 306 307 307 308 309 310 311 311 313 314 315 316 317 318 319 320 321 322 323 326 328 328 327 327 328 329 329 329 330 331 331 330 329 330 331 332 331 330 331 332 333 335 336 337 338 338 338 338 338 338 338 338 338 338 338 339 339 339 339 339 339 339
307 307 307 306 305 305 306 305 305 305 305 304 304 304 304 304 304 304 304 304 304 304 305 306 306 307 307 308 308 308 309 310 311 313 315 316 317 317 318 318 319 319 321 322 324 324 324 325 326 327 327 328 329 330 331 331 330 330 331 331 331 331 332 333 334 335 335 336 337 337 336 336 336 337 338 339 339 339 340 340 339 339 339 339 339
307 307 306 305 305 305 305 305 305 305 304 303 304 304 304 304 304 304 304 304 304 304 304 305 306 306 306 306 306 306 306 307 309 311 313 314 315 315 315 315 315 316 316 317 317 317 317 317 319 320 321 323 325 327 329 330 330 330 331 332 331 331 332 333 333 333 334 335 337 337 336 335 334 335 336 338 338 339 340 340 340 340 339 339 338
307 306 305 305 305 305 305 305 305 304 303 303 303 303 303 303 303 303 303 303 304 304 304 305 306 306 305 305 304 304 304 306 308 309 310 312 313 313 313 313 313 313 314 313 312 312 311 311 312 313 315 317 319 322 325 327 328 329 330 331 331 331 332 333 332 331 332 334 335 336 335 333 332 334 335 337 338 339 339 339 340 340 339 339 337
306 305 304 304 304 304 304 304 304 304 302 302 303 303 303 303 303 303 302 303 304 304 304 305 305 305 305 304 303 302 303 304 305 306 308 310 311 311 310 311 311 311 311 310 309 309 309 309 309 309 310 311 313 317 321 324 326 327 328 329 330 329 330 331 330 330 331 333 334 335 333 332 332 334 335 335 336 337 338 339 340 339 339 338 336
304 304 304 303 303 303 304 304 304 303 302 302 302 302 302 302 302 302 302 302 303 303 303 304 305 305 304 303 302 302 302 303 303 304 305 307 308 308 308 308 309 308 308 306 306 306 306 306 306 306 306 306 308 311 315 319 325 327 326 325 326 328 329 329 329 330 330 331 334 334 332 330 332 333 333 333 334 333 333 334 337 338 338 338 335
303 303 303 302 302 303 303 303 303 302 301 302 302 302 302 302 301 301 302 302 303 303 303 304 304 304 303 302 302 302 301 301 301 302 303 304 305 305 305 306 306 306 304 303 303 303 304 304 303 303 303 304 305 306 309 313 317 320 321 320 320 323 327 328 329 330 328 326 328 331 330 329 330 330 331 331 332 330 328 328 330 334 336 336 334
301 302 302 301 302 303 302 303 302 301 301 302 302 302 302 301 300 301 302 302 302 303 303 303 303 303 302 301 301 301 300 300 300 300 301 301 301 302 302 303 303 302 301 301 301 302 302 301 301 301 300 300 301 302 304 305 307 309 312 313 314 318 323 327 328 330 328 324 325 328 329 328 329 329 330 330 330 329 329 329 330 332 333 333 333
301 301 301 301 301 302 302 302 301 300 301 302 302 302 301 300 300 301 301 301 302 302 302 302 303 302 301 300 300 300 299 298 298 299 299 299 299 299 300 300 300 299 299 299 300 300 300 300 299 299 298 297 299 301 302 302 303 305 308 310 311 315 320 324 327 328 327 325 324 325 326 327 326 327 328 329 329 329 330 330 331 332 332 332 331
Wind_Speed
14 14 18 25 23 21 22 19 14 9 5 2 1 7 12 12 14 17 19 22 24 25 26 26 26 25 23 22 19 15 16 15 15 15 14 16 23 25 27 29 28 28 27 26 28 28 25 25 26 26 26 26 24 25 26 26 26 23 22 24 21 19 20 17 19 22 17 15 12 11 12 11 11 12 12 12 11 13 13 14 16 14 13 12 13
16 17 20 23 22 22 22 19 19 13 3 2 3 2 8 11 13 15 17 20 23 25 26 28 30 29 28 28 24 19 21 20 15 15 15 13 13 21 26 28 28 28 28 27 28 29 27 25 27 27 27 27 25 24 25 25 24 23 22 25 21 20 22 18 18 22 17 15 11 8 9 9 11 12 12 13 12 13 13 14 17 16 14 15 14
12 13 16 18 19 20 19 17 18 17 10 2 1 2 6 9 11 13 15 19 21 22 25 28 31 30 26 27 27 23 23 21 18 19 17 14 13 13 20 27 27 27 28 28 28 29 30 26 25 28 28 27 26 25 26 25 24 23 23 25 21 19 22 20 19 22 17 16 12 6 5 6 7 10 13 14 14 14 14 15 17 17 16 16 15
11 11 11 14 17 18 17 17 15 15 16 8 1 4 6 8 10 12 14 18 20 22 24 25 27 28 24 22 26 25 22 21 18 17 17 17 16 14 13 22 26 26 26 28 28 29 30 27 24 28 29 27 27 27 27 27 26 24 23 26 23 19 21 21 19 23 20 17 11 3 5 6 3 7 12 15 15 15 15 16 16 17 17 17 17
10 10 9 9 13 16 16 17 15 12 15 16 9 5 7 10 11 12 15 18 19 21 24 23 23 25 24 19 20 22 21 21 21 19 18 20 23 20 17 19 23 26 27 27 28 28 30 29 25 27 30 28 28 28 27 28 27 25 24 25 25 22 21 20 19 23 23 20 15 7 5 3 2 7 11 12 17 18 17 18 17 17 18 19 18
10 9 9 8 9 12 14 15 15 13 13 17 17 12 8 10 13 14 16 19 20 20 22 23 22 23 24 20 18 19 21 24 25 26 26 25 26 26 23 21 22 23 26 26 27 28 29 30 27 26 30 30 28 27 27 27 26 26 26 26 27 26 22 20 19 23 25 22 21 15 8 3 4 9 8 4 13 18 18 19 19 19 19 19 20
11 9 9 9 8 10 12 13 14 13 12 14 16 16 14 10 11 15 17 20 22 22 22 24 24 24 25 24 20 18 18 23 27 28 28 28 27 27 26 25 24 23 24 26 28 28 29 31 29 26 28 30 29 27 26 27 27 26 27 27 28 27 24 21 19 22 26 24 21 19 14 9 6 8 7 3 6 10 16 20 20 20 20 19 21
11 10 9 9 8 9 11 12 13 14 13 13 14 15 16 15 12 12 16 19 23 24 23 23 26 26 25 24 21 20 20 20 24 26 26 28 29 28 28 28 27 26 27 28 29 28 29 31 30 26 27 28 29 29 27 27 27 27 28 28 28 28 26 24 20 21 26 24 21 18 17 16 9 7 11 9 5 4 9 15 18 20 21 21 21
12 12 11 11 12 12 13 13 13 13 14 13 13 14 14 16 16 12 12 18 22 24 22 21 24 25 23 22 21 20 21 19 20 22 23 26 28 28 28 28 27 28 29 30 30 28 29 31 31 29 28 28 29 30 28 26 27 28 28 29 29 27 27 26 21 20 25 24 21 19 18 18 14 9 13 13 8 6 5 7 12 16 18 22 24
13 14 14 17 19 19 18 16 13 13 14 14 14 14 14 15 15 16 13 14 18 20 20 21 23 24 23 22 23 22 20 18 18 19 20 22 25 28 29 29 28 29 30 32 32 30 30 30 30 31 29 28 29 30 29 27 28 28 28 29 29 27 26 28 25 20 23 26 23 20 19 17 15 11 13 15 11 8 6 6 12 14 12 18 24
12 13 15 19 23 23 22 19 15 14 14 14 15 15 15 15 15 16 16 12 15 17 18 23 25 25 23 20 22 24 23 22 22 21 21 22 24 28 30 30 30 31 32 33 33 31 30 30 31 31 30 29 28 29 30 28 29 30 28 27 29 28 26 27 28 21 20 26 25 21 22 21 17 13 13 16 12 9 7 5 12 16 14 16 22
12 11 12 15 16 18 21 22 19 16 15 15 15 16 16 15 15 15 18 12 12 16 17 22 23 22 22 20 22 26 28 28 28 28 28 27 27 27 27 29 31 31 32 33 34 33 30 30 32 32 31 31 30 28 29 28 26 28 28 27 28 29 26 24 26 24 19 22 25 23 23 23 21 18 16 16 14 13 12 7 9 14 13 14 19
13 12 12 11 12 14 17 20 21 19 16 16 15 15 15 15 15 15 18 14 7 14 17 20 21 21 23 25 27 30 30 27 27 28 29 29 30 28 26 27 30 32 34 35 35 36 34 31 33 35 33 32 31 27 28 28 25 25 26 25 26 27 26 22 22 24 21 19 22 24 24 22 23 22 18 16 14 14 15 10 8 11 10 9 13
10 11 12 11 14 18 19 17 19 20 18 17 16 16 16 15 16 15 16 17 9 11 19 22 24 24 25 27 28 27 22 20 23 26 27 26 27 28 28 30 30 32 37 39 37 36 36 32 30 34 34 31 31 28 26 26 25 23 22 22 22 22 23 21 20 22 22 20 19 23 26 23 22 22 20 18 15 12 16 14 9 8 7 8 10
10 11 12 13 15 20 22 20 20 21 20 18 17 17 16 17 17 16 15 16 15 12 15 20 23 25 27 27 28 28 24 22 25 28 28 27 27 28 30 32 32 33 36 38 37 35 37 35 30 33 35 32 30 30 28 27 26 26 26 26 25 24 25 24 23 22 22 23 22 22 24 24 22 21 20 20 17 13 14 17 14 7 4 5 7
11 12 12 15 18 18 20 21 21 23 22 19 19 17 16 19 19 16 15 15 15 16 16 17 19 22 25 25 26 30 30 29 29 29 29 28 30 31 31 32 33 33 34 35 34 32 33 32 27 26 30 32 32 33 33 32 33 36 38 38 37 34 33 32 30 28 26 27 26 24 23 22 22 22 20 18 18 16 13 16 18 13 7 4 4
12 12 12 15 19 20 19 19 20 22 23 22 21 19 18 20 20 18 16 14 14 15 17 18 19 21 22 22 24 27 29 30 31 31 30 29 31 32 31 31 32 33 33 32 30 29 29 29 24 20 23 30 32 34 36 35 34 37 39 39 37 35 34 35 34 33 32 31 29 28 26 22 21 22 20 18 18 17 15 16 19 18 13 7 3
12 13 13 14 17 20 21 21 21 22 23 23 23 21 21 20 20 21 17 13 13 15 16 18 18 20 22 23 23 24 25 28 30 30 28 27 29 30 29 30 31 31 31 30 28 28 28 27 26 23 23 25 24 26 32 35 33 33 35 35 35 33 32 32 32 32 33 33 31 31 30 26 22 21 20 19 18 17 17 17 18 19 18 13 7
12 12 12 13 17 21 23 24 24 22 22 24 23 21 21 21 20 19 15 13 16 16 15 17 17 18 21 23 24 24 24 26 29 30 28 26 26 28 28 29 29 29 28 28 27 27 25 21 20 24 25 24 22 23 28 31 31 31 32 34 35 34 32 31 32 33 33 32 30 29 30 29 25 22 21 20 20 20 19 18 19 20 20 19 15
11 12 12 14 19 24 26 27 25 22 22 24 24 21 20 21 20 17 15 15 17 17 16 17 18 18 19 21 23 24 25 26 28 30 30 29 28 27 27 27 28 29 28 27 26 23 23 23 21 25 29 28 26 29 32 32 31 31 31 33 35 34 33 32 32 34 34 32 29 26 28 29 27 25 23 22 22 22 21 20 19 20 20 21 20
12 12 13 15 20 26 28 28 26 23 21 23 24 22 19 20 18 16 16 18 18 17 17 17 17 17 17 19 21 23 25 26 28 30 31 31 30 28 27 25 25 28 29 28 26 21 21 25 24 26 31 32 29 30 33 35 34 33 32 33 35 35 35 33 32 33 33 33 30 27 27 28 27 26 25 24 23 22 22 23 22 21 21 21 21
12 13 14 15 20 26 28 26 24 23 22 22 23 23 19 18 18 16 17 18 17 18 19 18 17 18 19 18 19 20 22 24 25 27 29 31 32 32 30 26 24 25 28 30 29 25 24 25 26 26 29 32 30 28 30 35 36 34 32 33 36 36 35 34 34 34 34 33 32 29 28 28 28 27 26 24 23 23 23 23 24 23 21 20 21
12 13 13 16 22 27 27 24 22 22 23 22 22 22 19 17 17 17 16 16 16 18 20 20 20 21 22 22 20 18 17 20 22 24 27 31 33 34 33 30 27 25 26 29 30 29 28 27 27 28 28 29 29 27 29 35 37 36 35 34 36 38 38 36 36 36 35 34 33 30 29 29 28 28 27 26 24 24 23 24 25 24 20 20 22
12 12 13 17 23 26 24 22 22 22 23 23 21 20 20 17 16 17 16 14 15 17 19 19 21 22 23 25 25 22 16 15 19 24 29 30 31 33 33 31 31 28 26 29 31 32 31 28 27 27 28 28 28 27 30 35 37 37 37 37 37 38 39 39 38 37 36 36 35 33 31 30 28 28 28 28 26 25 24 25 26 25 22 20 22
11 13 14 16 19 22 23 23 22 21 22 23 21 21 23 19 16 17 17 15 14 16 17 18 20 21 22 24 25 25 21 16 16 21 27 29 30 31 30 30 31 30 28 29 31 31 30 28 27 27 28 28 27 28 31 35 36 36 35 36 36 37 39 40 40 39 37 38 38 37 35 32 30 28 28 29 28 27 25 25 25 25 25 22 21
12 12 12 13 14 18 22 24 23 22 21 22 22 23 26 23 17 15 16 15 14 14 16 17 18 18 19 21 23 24 24 21 18 19 23 26 30 31 31 33 32 31 30 30 29 29 29 29 29 31 32 31 29 30 32 34 35 34 32 32 34 36 39 40 41 40 38 39 41 40 38 35 33 31 30 30 30 30 28 26 25 25 25 25 24
11 11 11 13 12 13 18 21 22 22 21 21 21 21 23 23 19 16 15 14 14 13 15 17 17 17 18 19 21 22 23 24 22 21 23 23 25 29 30 31 30 30 33 32 29 31 33 33 33 35 35 34 32 32 32 32 33 33 33 33 33 34 36 38 39 40 39 40 41 41 39 37 37 35 33 32 31 31 30 29 28 27 26 25 26
12 12 12 12 10 8 14 18 19 22 22 21 21 21 21 21 19 17 16 17 18 16 16 17 17 18 19 20 22 22 23 25 24 23 24 24 22 22 24 27 28 30 34 35 35 37 38 36 36 37 37 37 34 32 31 29 28 28 32 35 34 33 33 34 36 38 40 40 41 40 39 40 41 40 37 34 33 33 32 30 29 28 27 26 26
13 13 13 13 10 8 12 17 18 22 25 23 22 23 22 21 20 19 18 19 20 19 17 17 17 18 20 22 23 23 22 24 25 25 24 23 22 21 21 23 25 28 33 36 38 38 36 36 37 37 38 39 38 35 33 30 28 27 30 34 35 34 32 32 33 35 38 40 41 41 41 41 42 43 40 36 34 35 34 32 31 30 29 27 25
13 14 14 13 12 11 14 18 20 22 24 24 23 23 23 22 22 20 20 20 20 19 18 16 16 18 20 23 24 23 22 23 24 24 24 20 17 18 20 23 25 28 31 33 33 33 32 34 36 36 37 39 39 38 37 34 30 29 31 33 33 32 32 31 31 32 35 39 43 44 44 43 42 43 42 37 34 34 35 34 32 31 31 30 27
12 14 13 13 11 13 17 20 21 23 24 22 21 23 23 23 23 22 21 20 20 20 18 16 16 17 19 20 21 22 22 21 21 22 23 19 12 13 17 21 23 25 28 30 29 29 31 34 36 36 37 38 37 37 38 36 34 33 34 33 30 30 31 31 31 31 33 38 43 45 45 43 41 40 40 38 35 35 36 35 34 32 31 31 31
12 13 13 13 12 13 16 18 20 21 22 22 20 21 22 23 24 24 22 20 19 19 18 17 16 17 17 18 18 21 21 21 20 21 21 17 11 11 16 20 21 22 24 28 28 29 31 33 36 37 38 38 38 37 37 37 36 37 38 36 32 30 30 30 31 32 34 36 40 43 43 43 42 41 40 38 37 37 37 37 37 35 32 32 33
12 13 14 14 14 15 16 18 19 19 20 22 21 20 20 21 22 22 22 20 18 18 18 17 17 17 18 18 19 20 20 20 19 19 19 18 14 12 14 18 21 22 23 25 27 28 31 32 35 38 39 39 40 40 40 40 40 40 40 39 36 32 30 31 33 34 34 35 38 40 40 42 44 45 43 41 39 39 39 38 37 36 35 34 34
11 13 13 13 15 17 17 19 19 19 19 20 21 20 19 19 20 20 20 20 19 19 18 17 18 19 20 20 20 20 20 20 19 18 18 18 15 14 15 15 18 21 22 23 25 27 30 31 32 35 38 38 40 42 42 42 43 44 43 41 40 36 33 34 35 35 35 35 38 41 40 42 46 47 46 44 41 40 40 40 40 38 39 38 37
11 11 11 12 15 17 18 19 19 19 19 19 20 21 20 19 19 20 20 20 19 19 19 19 20 21 21 21 21 21 21 20 19 18 17 17 15 15 16 15 15 16 19 22 23 23 24 26 29 33 36 39 41 43 43 42 44 46 45 44 43 40 37 35 36 37 35 35 38 41 42 43 46 48 49 48 45 41 40 41 42 42 42 42 41
11 11 10 13 16 18 19 20 18 18 19 18 19 20 20 19 19 20 20 20 20 19 20 20 20 20 21 21 21 21 21 21 20 19 17 17 16 15 15 16 16 17 18 21 22 20 20 22 26 28 30 34 39 42 43 45 46 48 48 48 47 44 41 38 37 38 37 36 38 41 43 43 43 45 50 53 51 44 39 39 41 42 42 41 43
13 14 13 16 17 18 19 21 20 18 18 18 18 18 18 18 19 20 20 20 20 20 20 21 20 21 22 22 21 20 21 21 21 19 19 18 17 17 16 16 17 17 17 18 19 19 21 22 22 20 19 23 31 35 39 44 50 52 52 51 49 46 43 41 40 39 39 38 38 41 45 44 41 42 46 52 55 49 40 37 38 39 40 39 41
14 16 15 17 18 18 19 22 22 18 17 19 19 18 17 17 17 18 20 20 19 20 21 21 21 22 23 24 22 20 20 21 21 20 20 20 18 17 17 16 16 15 15 15 15 16 19 22 22 20 16 16 23 28 30 34 42 48 53 54 51 46 42 42 42 40 38 37 37 41 46 47 43 42 42 46 52 51 43 38 37 36 35 36 40
13 15 16 17 18 18 19 21 21 19 19 19 20 18 17 17 17 18 19 19 19 20 21 22 22 22 24 26 24 20 20 21 21 21 21 20 19 18 17 18 18 17 17 17 15 13 15 18 19 20 20 19 21 25 25 25 30 37 49 56 53 46 42 40 40 38 36 35 35 37 43 48 46 43 41 41 45 48 45 40 39 36 32 34 40
14 16 17 17 17 18 18 19 20 20 20 19 19 18 17 18 18 19 20 20 21 21 21 22 23 23 24 27 25 22 22 23 22 22 22 21 21 20 20 19 19 18 17 18 17 16 17 17 16 19 21 21 23 25 24 23 24 29 39 48 48 42 40 39 38 36 34 33 33 33 38 46 48 45 42 39 40 44 45 42 39 35 33 36 40
14 15 16 16 16 16 17 17 18 19 19 18 18 17 17 17 19 20 20 22 23 23 22 22 23 23 25 27 26 25 26 25 22 23 25 24 22 22 20 19 19 18 18 17 17 17 18 17 16 17 18 19 22 25 25 25 25 25 29 37 41 40 39 39 37 35 32 31 32 32 33 41 47 48 46 42 40 42 45 45 41 38 39 40 38
14 14 14 15 15 16 16 17 17 18 18 17 16 16 17 17 18 20 21 22 23 23 23 23 23 23 24 26 26 27 27 25 23 24 26 24 23 22 21 18 18 18 18 16 16 16 17 18 18 17 17 16 18 22 25 26 25 23 22 27 35 40 41 39 36 35 33 32 33 33 33 35 41 46 49 48 45 43 44 46 46 43 42 41 34
13 13 14 15 15 16 16 16 16 17 17 16 16 16 17 17 18 20 21 21 22 22 23 22 22 23 24 24 25 27 26 24 25 26 25 24 23 23 22 20 19 18 17 15 15 17 18 18 18 18 18 16 14 16 20 21 21 22 22 22 27 37 42 38 31 28 27 27 29 33 35 36 37 40 45 50 51 47 44 46 47 47 45 42 37
13 13 15 15 15 15 15 15 16 16 16 16 16 16 16 17 19 20 20 21 21 21 22 22 22 22 23 23 25 26 25 26 27 26 24 24 24 23 23 23 22 21 21 18 16 18 20 20 19 19 20 19 16 16 17 18 19 22 24 23 23 30 40 43 37 31 28 30 32 32 32 34 36 35 38 46 52 51 46 44 44 44 45 44 42
13 14 15 15 15 15 15 15 15 15 15 15 16 16 17 18 19 20 20 20 20 20 20 21 21 21 21 22 23 24 25 26 26 25 23 23 23 23 23 24 24 23 22 21 21 21 22 22 21 21 21 21 20 20 20 20 20 21 23 24 24 26 35 44 45 38 34 37 40 37 32 32 33 32 33 38 44 48 46 45 44 43 42 43 42
13 14 15 15 15 14 15 16 16 15 15 16 16 16 17 19 19 19 20 20 20 21 20 19 19 19 19 21 23 23 25 25 24 24 23 21 21 22 22 22 22 22 21 22 23 23 23 22 22 22 22 23 23 21 21 21 21 20 19 21 24 26 32 41 44 39 36 38 39 37 34 31 30 30 31 32 35 37 39 42 45 44 41 42 40
12 13 14 15 15 15 15 16 15 15 16 16 15 16 17 19 19 19 19 19 20 21 20 18 18 18 19 20 22 23 23 23 23 23 22 20 19 20 20 20 20 20 21 22 23 23 23 22 23 24 25 26 26 24 21 21 22 20 17 16 18 21 28 37 40 40 40 39 37 34 29 26 27 30 31 31 31 33 35 38 41 42 41 42 39
11 12 13 14 14 15 16 16 15 15 15 15 15 15 17 18 19 19 19 19 20 21 19 18 18 18 19 20 21 21 21 21 21 21 21 20 20 20 19 18 18 20 22 23 23 23 22 22 23 25 27 28 28 26 22 18 18 16 14 14 14 15 21 28 33 37 41 41 40 37 30 23 23 25 23 21 22 24 27 31 35 37 39 41 38
10 10 11 12 13 13 14 15 15 15 15 15 15 15 17 18 18 18 19 20 21 20 19 17 17 18 20 22 21 20 19 20 20 20 20 19 19 19 19 18 17 19 22 24 24 22 22 23 24 24 26 27 30 32 29 25 22 21 22 25 25 22 20 21 24 29 33 32 32 32 27 23 22 22 19 17 17 17 16 18 22 28 32 34 35
9 9 10 11 11 12 13 13 14 15 15 16 15 15 17 18 18 18 19 20 21 20 18 17 17 19 21 22 21 19 19 19 20 20 21 21 20 18 17 17 18 21 22 23 22 21 21 23 25 27 28 28 31 37 41 40 38 37 36 36 36 31 25 20 19 23 26 23 19 18 18 18 18 17 17 18 17 14 13 14 17 23 27 29 31
8 8 9 10 11 11 12 12 13 14 15 15 15 15 17 18 19 18 19 20 20 19 18 18 18 19 21 22 20 19 19 19 19 20 21 22 23 22 19 17 18 22 24 23 21 20 20 22 27 31 35 35 36 38 39 39 39 38 38 37 36 34 29 23 19 20 22 22 18 16 15 15 15 16 20 21 19 16 17 19 19 22 26 27 29
Wind_Direction
3 3 11 21 21 30 28 18 29 61 110 105 316 237 233 228 209 196 196 200 197 196 200 201 197 197 200 209 223 229 230 256 282 265 235 201 188 188 188 188 188 186 186 188 190 192 191 192 194 194 196 196 196 194 193 200 209 215 204 200 209 205 215 220 184 175 178 173 171 176 186 191 191 192 193 195 192 188 186 181 182 184 189 195 191
4 4 12 16 13 16 20 17 12 7 38 94 7 245 213 220 216 206 204 203 200 200 201 201 197 194 195 201 210 216 215 224 236 237 255 266 217 191 186 187 189 188 188 188 190 192 193 193 193 192 192 195 198 196 195 199 206 210 200 197 206 204 213 220 187 175 172 161 157 166 183 195 201 201 203 205 199 194 192 189 188 187 193 195 191
2 357 4 7 10 13 12 16 11 355 348 48 40 285 197 207 217 211 211 208 206 209 205 203 201 198 201 204 204 207 211 215 211 205 223 263 268 229 193 186 189 190 190 190 191 193 195 196 193 190 190 193 196 198 200 203 204 207 201 197 201 201 211 221 198 180 170 160 161 166 176 184 200 205 211 212 206 202 199 196 195 193 196 199 199
357 352 357 7 10 8 6 10 10 355 347 360 106 222 203 201 216 217 217 210 210 217 211 208 208 205 210 210 200 200 207 211 209 206 212 222 238 251 221 194 192 193 194 193 193 195 195 197 195 190 191 193 195 196 199 204 206 207 202 196 197 198 206 221 210 189 178 170 167 167 171 172 198 199 207 216 211 208 206 204 200 196 198 200 200
344 345 347 5 13 5 4 5 1 359 354 354 350 280 228 211 219 222 215 208 211 218 214 213 216 210 210 212 201 194 196 204 206 207 211 210 211 220 223 212 203 197 197 199 197 197 197 197 197 193 193 194 195 196 197 202 205 207 203 196 197 200 201 212 211 194 188 184 178 172 161 174 230 181 183 209 210 208 209 208 205 200 201 202 202
328 331 333 349 16 7 1 2 355 2 4 349 341 328 293 233 221 224 220 213 211 215 214 215 220 215 206 206 206 196 188 193 201 203 204 206 206 206 207 215 218 207 202 205 203 202 202 201 199 196 195 195 196 197 198 200 202 205 204 200 200 205 204 205 205 194 193 196 190 188 189 184 186 170 160 185 200 205 209 209 208 204 203 205 206
318 321 327 335 4 9 1 1 352 355 5 348 339 334 321 290 241 227 225 223 216 213 215 215 219 221 216 211 209 207 198 195 202 206 206 204 202 200 202 208 217 217 211 210 210 207 205 204 204 200 196 196 197 198 199 200 201 201 202 203 204 208 209 207 204 192 193 205 204 199 209 216 188 165 163 145 173 201 210 211 212 206 205 207 208
316 317 321 323 348 4 355 353 349 351 358 349 339 333 324 316 295 249 226 229 225 215 212 214 216 219 221 218 213 210 209 208 208 210 211 205 195 195 203 206 210 218 218 215 215 212 207 205 207 205 199 198 199 200 202 202 202 201 201 202 205 210 211 209 208 196 192 202 209 207 220 233 231 179 175 173 158 182 202 210 213 207 207 209 210
325 322 321 320 335 354 349 341 344 349 351 344 336 334 328 318 309 289 246 230 225 213 208 214 217 219 222 223 224 219 214 218 219 215 214 205 192 192 202 207 211 218 221 219 219 216 209 207 207 207 204 201 199 201 205 206 203 203 202 202 204 209 212 211 213 204 194 196 204 211 225 239 241 215 191 189 183 177 180 199 206 204 209 212 211
338 334 332 332 335 342 337 327 334 347 347 342 335 331 329 322 314 304 281 242 220 213 214 219 219 218 219 224 231 233 225 222 221 215 214 209 197 195 200 205 212 220 225 222 219 218 212 207 206 207 208 204 200 201 205 207 206 205 203 202 203 205 210 214 217 213 198 196 201 209 219 230 231 217 205 200 188 181 187 188 191 196 206 211 211
340 337 337 336 334 333 326 317 325 338 338 336 334 331 327 323 317 308 301 271 226 222 223 221 221 219 215 218 230 238 234 225 220 215 215 215 208 200 199 204 209 220 230 227 219 218 215 207 205 207 209 207 202 201 203 205 206 206 204 203 202 204 208 212 217 220 203 194 198 206 214 221 219 211 208 204 190 180 185 186 192 201 207 209 211
338 336 336 332 328 326 325 322 323 330 331 327 326 326 324 322 319 313 314 298 229 225 232 223 221 222 222 224 227 233 233 224 220 218 215 218 219 210 202 204 207 216 231 232 222 218 216 210 205 205 208 209 206 202 201 204 206 203 202 203 202 205 208 208 213 221 213 195 197 207 215 219 217 216 216 211 204 193 184 178 190 200 205 208 210
344 340 339 335 330 327 325 324 323 324 324 317 316 320 320 320 322 318 317 314 234 207 222 229 230 225 224 226 225 230 235 227 222 222 218 217 221 219 209 204 205 211 225 231 222 216 215 213 207 203 206 210 209 205 200 202 205 201 199 202 203 204 207 207 210 218 220 207 202 211 218 221 217 216 218 218 217 199 180 176 194 201 198 195 199
349 342 341 340 337 332 326 320 316 315 312 312 317 317 316 319 319 318 316 318 300 216 205 214 224 225 226 227 227 232 240 236 233 233 229 225 223 222 218 214 211 211 219 225 221 214 212 214 210 203 203 208 210 207 203 200 200 198 197 201 204 204 206 210 212 217 222 220 213 214 220 225 220 217 219 219 218 195 172 172 191 210 200 182 187
347 338 342 341 338 336 333 329 322 315 310 309 308 305 311 316 312 312 313 315 313 282 236 218 215 214 219 223 226 230 229 227 232 234 234 236 233 226 222 219 218 217 219 221 220 213 210 213 214 206 201 205 208 207 205 201 194 192 196 198 201 202 203 208 212 215 218 220 222 221 222 225 221 218 220 218 214 205 186 181 185 192 193 183 192
348 339 340 340 339 339 336 334 329 320 314 307 299 297 304 305 302 305 308 309 309 300 283 261 241 227 219 213 217 225 224 218 221 224 226 232 235 230 223 217 217 219 221 223 221 215 210 211 218 214 203 201 206 207 207 205 198 195 196 196 196 195 196 199 203 208 212 214 221 224 224 226 221 219 222 217 210 212 207 194 189 187 180 175 202
351 344 341 340 339 338 336 334 329 322 316 308 302 300 296 293 296 297 296 301 304 300 295 284 269 257 241 223 218 225 225 220 219 220 219 223 229 231 227 222 220 221 222 225 226 219 210 209 218 228 215 207 209 208 209 211 207 203 199 195 194 193 194 196 197 202 206 207 212 218 223 226 222 220 223 218 209 209 207 197 194 195 193 181 186
350 347 345 341 337 336 334 333 329 323 316 306 299 296 287 280 282 285 285 295 304 300 296 291 281 270 257 243 232 228 225 224 226 227 225 223 227 231 231 228 226 226 225 227 231 224 212 208 212 217 216 217 216 212 213 216 215 211 204 198 195 195 196 198 198 201 205 205 206 208 213 220 221 220 222 219 209 205 205 203 204 207 207 203 200
349 348 345 342 340 339 335 330 327 325 324 314 302 297 292 281 276 280 286 291 292 288 285 288 287 279 269 255 241 231 226 226 228 230 227 224 225 228 231 232 232 233 233 232 234 229 220 219 219 213 212 220 223 224 230 229 222 215 209 202 199 197 199 200 200 202 205 206 207 207 208 212 215 215 217 218 212 208 207 207 211 214 213 214 216
348 347 346 346 347 344 337 331 326 326 330 323 310 302 299 293 286 288 296 294 288 284 279 279 279 277 274 262 246 234 229 228 228 229 229 228 229 227 228 234 235 234 233 232 233 231 224 224 227 219 216 218 216 224 239 242 230 220 212 205 200 199 202 205 205 206 207 206 207 210 211 210 211 211 211 215 216 215 213 209 211 216 217 218 221
348 345 347 350 349 345 337 329 325 326 330 326 319 311 304 304 302 301 305 304 303 301 293 285 281 278 278 270 256 241 233 234 234 232 232 232 233 233 232 235 237 234 234 233 233 231 219 218 223 223 220 218 211 216 233 239 232 224 216 208 199 198 201 204 207 208 209 207 206 208 211 211 210 209 209 211 212 211 212 212 211 214 217 217 217
348 346 347 349 346 340 334 326 324 326 326 325 325 320 312 313 313 307 302 300 303 308 306 308 311 308 305 296 278 258 241 237 238 236 236 237 238 239 238 236 234 236 237 236 235 233 224 220 224 223 219 217 213 215 228 235 232 226 219 209 200 198 199 202 206 208 207 207 206 206 208 209 209 209 208 208 208 207 208 211 211 213 219 218 214
348 345 347 350 346 340 335 331 329 328 326 324 323 320 313 312 313 307 299 296 299 305 309 316 321 318 318 318 309 289 259 242 242 243 243 242 242 242 241 236 234 236 239 238 236 234 230 224 223 222 218 218 219 221 229 234 233 229 223 214 204 199 199 201 205 207 207 207 209 209 207 206 206 207 207 207 206 206 207 209 210 212 218 219 215
346 344 353 355 350 346 342 338 335 335 332 326 321 319 315 311 310 306 302 304 308 310 313 319 322 321 320 320 319 313 293 258 248 253 253 248 244 242 240 237 234 232 235 236 232 231 229 222 220 223 221 219 220 224 229 232 233 230 227 221 210 202 201 203 205 207 208 208 210 211 209 205 204 205 207 207 207 206 207 211 213 213 217 218 214
349 351 359 357 353 351 347 342 339 339 336 330 324 324 322 315 310 310 309 311 315 315 316 316 316 318 317 315 316 318 313 288 259 258 256 247 244 247 246 243 238 232 231 231 227 227 225 217 217 225 227 223 221 223 228 231 231 231 230 226 217 207 203 205 209 210 209 208 209 211 209 205 204 204 206 207 207 207 207 211 214 213 215 217 213
0 1 0 354 352 353 347 342 341 340 337 333 328 328 326 320 313 307 303 303 308 311 312 309 306 308 311 312 311 314 318 311 292 277 265 247 239 241 246 249 245 237 235 232 223 219 216 213 216 223 228 230 228 225 227 230 231 230 230 228 222 214 208 208 212 212 210 209 210 212 211 208 206 205 206 206 206 208 209 210 212 212 213 214 213
359 358 357 352 350 353 346 340 339 339 340 337 332 332 331 327 322 314 307 308 312 311 308 305 304 305 307 310 309 309 312 313 309 299 289 270 243 226 226 234 236 233 237 237 227 219 215 213 216 219 223 227 228 226 226 228 230 230 229 226 223 220 215 212 213 212 210 210 212 214 214 213 212 209 207 207 205 205 208 209 210 212 213 212 211
352 351 356 354 351 353 346 341 338 339 343 344 339 338 339 337 335 333 332 330 324 319 310 305 308 312 311 309 307 304 303 304 307 304 297 288 268 242 230 231 228 225 229 232 226 223 220 217 216 218 221 223 223 222 222 224 227 230 229 225 222 220 218 215 215 214 212 212 214 216 217 217 217 214 210 208 205 204 206 209 209 211 212 210 208
348 348 354 354 353 353 346 344 342 342 348 350 345 343 345 344 341 340 341 338 331 326 319 315 317 318 317 313 306 301 297 295 299 303 299 287 274 268 260 250 237 226 224 225 221 219 219 218 218 218 219 220 220 220 220 221 226 231 229 224 220 220 219 217 218 218 216 215 216 218 219 219 219 217 212 209 208 206 206 208 209 210 212 210 207
345 342 349 354 354 356 351 347 347 346 349 353 349 345 345 344 342 341 340 338 334 329 322 320 319 316 318 320 314 308 302 293 291 299 303 294 275 272 272 259 243 231 227 227 222 216 214 213 215 218 217 218 221 223 221 219 222 228 229 225 221 220 220 218 218 219 218 216 216 217 219 220 220 218 214 211 210 209 209 209 209 209 211 210 206
344 338 347 355 355 356 354 350 350 349 348 352 353 347 345 344 341 339 337 336 336 330 323 321 317 313 315 318 320 320 317 309 301 299 302 303 290 281 280 269 258 248 241 237 229 221 219 215 213 215 215 215 218 221 221 219 219 223 227 227 224 222 221 219 219 220 219 218 216 216 217 218 218 217 216 214 213 212 213 213 211 211 212 211 210
343 337 345 350 350 355 356 348 347 348 346 350 354 349 347 345 339 336 334 334 336 333 326 322 316 311 314 320 325 326 322 318 315 309 306 308 306 288 275 268 269 269 262 254 242 227 222 220 216 215 214 214 216 217 219 219 217 218 222 225 226 224 222 221 220 221 223 222 218 216 216 216 216 215 213 213 214 215 215 215 213 213 213 214 215
341 340 343 348 349 353 353 341 339 347 348 349 352 349 348 345 338 337 336 335 338 336 330 328 326 323 325 329 332 328 322 317 316 314 312 312 314 305 281 265 266 271 268 265 260 243 231 224 219 217 216 215 216 215 217 219 217 217 220 223 224 223 221 222 222 223 226 226 222 219 216 214 214 214 213 212 213 215 216 216 215 214 214 215 217
341 342 342 351 351 348 348 338 336 350 354 351 350 347 347 348 342 340 341 340 341 338 336 337 337 335 333 332 330 327 323 319 316 316 317 316 316 314 305 292 283 277 267 263 264 256 245 236 228 223 220 219 220 218 218 220 220 221 223 223 223 222 221 222 223 224 227 229 225 221 217 214 212 213 213 213 214 215 215 214 213 213 215 216 217
343 342 345 358 351 345 347 338 337 352 354 350 351 347 346 352 350 346 344 343 342 341 339 341 340 336 333 330 328 325 323 322 321 321 322 321 320 314 310 311 307 294 279 269 264 260 257 253 246 236 228 225 226 223 220 220 221 224 227 225 224 222 221 222 224 224 226 229 228 224 220 217 213 210 211 213 214 214 213 212 211 213 216 218 219
343 341 348 2 352 342 340 333 338 355 353 348 353 349 346 352 353 351 348 345 346 344 341 340 339 335 330 327 326 325 323 323 324 323 323 325 325 320 314 313 311 305 296 285 273 266 265 262 257 252 242 235 234 231 226 222 221 224 228 227 224 222 220 221 224 225 225 228 230 226 222 221 218 213 212 213 214 213 211 210 210 213 216 219 222
344 339 348 359 348 339 338 335 341 356 354 350 352 348 346 351 353 353 351 348 346 344 341 339 336 334 331 327 327 329 327 324 324 326 326 325 325 325 322 316 309 304 300 293 285 276 271 266 263 264 260 252 248 245 240 234 228 226 228 227 223 221 219 220 222 224 224 226 230 228 223 221 222 220 216 215 214 211 209 209 209 211 215 218 223
344 338 348 354 342 340 344 338 339 351 355 352 350 346 347 353 355 353 352 351 348 344 341 339 335 334 332 328 329 333 331 328 327 325 323 322 322 324 325 320 312 305 300 298 295 283 273 268 262 254 246 250 257 257 254 249 242 236 232 230 225 221 219 218 219 221 222 224 229 229 224 221 223 224 222 220 216 211 208 207 207 208 210 215 221
344 343 350 348 338 343 347 338 338 352 357 353 349 347 351 354 353 352 352 352 349 345 342 339 335 333 332 328 329 334 336 332 327 323 322 323 324 324 324 323 319 313 305 299 295 287 278 275 273 264 251 245 253 259 260 262 263 255 242 232 225 222 220 219 219 220 220 221 226 229 226 223 223 225 226 225 220 213 209 209 209 207 206 212 220
352 353 350 343 340 346 343 338 344 352 354 353 350 349 353 353 349 350 352 351 347 344 343 340 335 334 334 332 332 338 341 335 328 327 329 330 328 325 323 322 322 318 311 304 296 291 288 286 287 286 276 264 260 265 269 268 270 267 251 233 222 221 222 220 219 219 217 217 221 226 228 226 225 226 227 228 227 220 215 213 213 209 209 215 221
354 353 345 341 345 346 341 343 350 350 350 353 351 348 352 352 349 350 352 349 345 343 344 342 339 339 338 337 338 343 343 337 334 335 333 328 326 325 321 320 320 316 312 310 304 297 292 291 291 288 285 282 275 272 271 263 255 256 251 234 223 223 227 224 221 220 217 214 215 218 224 227 226 227 227 228 230 228 222 219 219 216 216 221 223
353 348 346 348 347 343 343 349 352 350 350 351 350 350 351 350 350 351 348 346 345 344 344 343 342 341 340 339 341 343 342 338 337 336 331 327 329 329 325 323 321 314 308 307 310 309 303 301 300 291 284 283 271 257 253 252 249 248 248 236 226 226 228 227 224 221 216 214 215 216 220 224 226 229 230 229 229 230 227 225 224 224 224 225 225
348 345 352 356 349 342 347 352 352 352 351 351 352 352 350 349 351 349 345 345 346 347 345 344 343 343 341 340 340 341 340 339 337 335 333 334 336 335 333 334 334 330 324 316 316 321 318 313 312 310 304 299 285 263 258 261 262 259 256 249 237 229 228 230 234 231 222 219 222 224 226 229 229 229 230 230 228 228 229 228 227 227 227 227 226
344 349 359 358 348 344 349 352 352 353 354 355 354 350 347 350 351 347 345 347 349 348 346 345 345 344 342 341 340 340 340 338 336 338 339 339 341 345 347 349 350 350 349 347 346 346 341 332 329 329 327 323 315 304 295 288 280 270 264 259 249 235 228 227 232 236 231 229 232 230 229 233 235 235 236 234 229 226 227 228 228 229 229 228 227
344 354 359 355 348 348 351 351 352 355 357 357 353 349 350 351 349 347 349 348 347 348 349 346 346 346 343 341 341 341 340 337 338 341 341 341 347 354 355 354 353 353 354 356 356 356 351 343 337 335 332 327 321 317 312 304 291 279 270 263 254 242 232 227 228 231 231 229 231 230 225 224 229 237 242 239 230 226 227 230 230 231 232 232 230
349 356 356 352 349 351 353 351 351 357 359 355 353 353 352 350 349 350 350 346 344 349 350 345 345 348 345 343 343 341 339 338 340 342 341 342 351 357 356 353 352 353 354 353 351 348 345 338 334 331 326 321 317 313 309 305 296 286 279 273 263 253 243 233 228 229 232 232 233 232 227 221 222 230 237 237 232 230 231 232 233 233 235 235 233
354 356 352 350 351 351 353 351 352 358 357 352 352 354 350 349 351 350 348 346 347 350 348 344 346 350 349 346 344 341 339 340 341 342 341 343 349 354 354 353 353 353 354 351 345 340 337 333 330 327 322 318 314 308 304 306 302 291 284 283 275 266 259 246 233 226 228 232 235 236 230 223 223 228 232 235 235 233 231 231 232 234 236 238 237
356 355 351 351 352 350 350 350 352 356 353 349 352 352 349 351 352 349 347 348 347 349 349 347 348 351 351 348 344 341 341 342 341 341 341 342 345 347 348 350 355 356 354 349 340 334 332 330 327 325 320 316 310 303 298 302 301 293 289 296 294 284 276 266 252 238 230 227 231 236 234 228 228 230 231 232 233 231 230 230 229 230 234 238 240
355 351 350 353 352 350 349 349 351 353 350 349 350 348 350 354 352 348 350 350 346 347 351 352 351 352 351 348 345 343 343 341 339 340 339 337 338 341 340 341 345 347 347 343 335 329 327 326 324 323 321 315 305 298 294 292 288 284 286 293 294 289 283 279 273 260 245 231 228 233 232 226 225 226 227 232 232 229 232 234 234 234 235 237 238
350 346 350 352 350 349 347 347 351 351 348 347 347 348 354 357 350 347 353 353 348 348 351 353 353 353 351 347 344 343 344 342 340 340 337 334 334 336 337 337 336 336 340 342 337 331 328 327 325 324 323 318 308 301 297 293 288 283 279 280 283 283 280 277 273 267 260 252 245 241 235 227 221 219 226 232 231 230 232 232 236 239 238 236 236
343 343 348 349 347 347 345 347 352 351 346 344 346 350 357 356 350 349 353 353 351 351 352 353 353 354 352 349 345 344 343 342 342 341 339 336 334 334 335 338 338 338 342 346 345 340 336 334 332 328 326 326 324 319 310 301 292 286 281 277 275 275 276 272 261 253 253 251 246 242 245 243 234 232 237 234 224 223 230 229 227 232 234 235 236